Regional Weather Roundup
Issued by NWS

Home | Current Version | Previous Version | Text Only | Print | Product List | Glossary Off
Versions: 1 2 3 4 5 6 7 8 9 10 11 12 13 14 15 16 17 18 19 20 21 22 23 24 25 26 27

000
ASUS45 KBOU 062307
RWRCO

WEATHER ROUNDUP FOR COLORADO
NATIONAL WEATHER SERVICE DENVER/BOULDER CO
500 PM MDT FRI MAY 06 2016

NOTE: "FAIR" INDICATES FEW OR NO CLOUDS BELOW 12000 FEET WITH NO
SIGNIFICANT WEATHER AND/OR OBSTRUCTIONS TO VISIBILITY.

COZ001>005-013-030-031-070000-
...NORTHWEST COLORADO...

CITY           SKY/WX    TMP DP  RH WIND       PRES   REMARKS
CRAIG          FAIR      71  32  23 SE29G38   29.81F
HAYDEN         FAIR      64  30  27 S32G40    29.87S
MEEKER         PTSUNNY   70  33  25 E18G24    29.79F THUNDER
MOUNT WERNER   NOT AVBL
STEAMBOAT SPGS PTSUNNY   61  42  49 CALM      29.91R
WALDEN         FAIR      59  32  36 E22G32    30.00R
$$

COZ006>008-011-070000-
...WEST CENTRAL VALLEYS...

CITY           SKY/WX    TMP DP  RH WIND       PRES   REMARKS
GRAND JUNCTION TSTM      63  34  33 NW22G31   29.78R
MONTROSE       FAIR      73  22  14 S13       29.79R
EAGLE          PTSUNNY   64  34  32 S15G25    29.91R
RIFLE          FAIR      72  35  25 SE12      29.74R
DELTA          NOT AVBL
NUCLA          NOT AVBL
$$

COZ017>023-064>068-070000-
...SOUTHWEST COLORADO...

CITY           SKY/WX    TMP DP  RH WIND       PRES   REMARKS
DURANGO        FAIR      67  18  15 SE16G25   29.84F
CORTEZ         FAIR      60  35  39 W23G31    29.85R
PAGOSA SPRINGS FAIR      69   3   7 S26G39    29.93S
TELLURIDE      FAIR      58  19  22 SE20G31   30.01S
WOLF CREEK PAS PTSUNNY   45  10  24 S35G47    30.18F
$$

COZ009-010-012-014-032>034-037-058>063-070000-
...CENTRAL COLORADO...

CITY           SKY/WX    TMP DP  RH WIND       PRES   REMARKS
ASPEN          PTSUNNY   55  42  61 NW9G20    29.93R
BUENA VISTA    PTSUNNY   66  32  28 E18G25    29.95R
COPPER MTN     NOT AVBL
BERTHOUD PASS  PTSUNNY   36  27  69 E10G37    30.24F
COTTONWOOD PAS FAIR      63   3   9 SE24G37   30.07S
GUNNISON       FAIR      66  19  16 S17G25    29.94S
KREMMLING      FAIR      63  30  29 SE12      29.94R THUNDER
LEADVILLE      CLOUDY    54  28  36 SE13G29   30.04F
MONARCH PASS   PTSUNNY   45  18  33 SW25G39   30.31S
SALIDA         FAIR      71  30  22 SE14G24   29.98S
SUNLIGHT       FAIR      50  32  50 E5        30.13S
WILKERSON PASS FAIR      50  30  46 SE5       30.23F
$$

COZ069>075-070000-
...SAN LUIS VALLEY/SANGRE DE CRISTO MOUNTAINS...

CITY           SKY/WX    TMP DP  RH WIND       PRES   REMARKS
ALAMOSA        FAIR      74  13   9 S32G44    29.94F HAZE
LA VETA PASS   FAIR      54  32  43 SE21G35   30.16S
SAGUACHE       FAIR      68  21  17 S26G37    29.96S
$$

COZ035-036-038>040-070000-
...NORTHERN COLORADO FRONT RANGE...

CITY           SKY/WX    TMP DP  RH WIND       PRES   REMARKS
DENVER INTL AP PTSUNNY   78  36  21 S25G31    29.85F
DMNS CITY PARK   N/A     73  38  28 NW6       29.85F
AURORA         FAIR      76  37  25 S24G36    29.85F
FRONT RANGE AP PTSUNNY   77  37  24 S15G28    29.87F
ERIE MUNI ARPT FAIR      73  44  36 NW9       29.86S
BOULDER MUN AP FAIR      73  43  33 W6        29.86F
CENTENNIAL     PTSUNNY   73  30  20 S15G35    29.87F
BROOMFIELD     PTSUNNY   72  41  33 N16G22    29.88F
FORT COLLINS   FAIR      66  48  52 W3        29.87R
LONGMONT       FAIR      73  47  39 NW14      29.88F
$$

COZ041-046-047-076>085-087-088-070000-
...PIKES PEAK/PALMER DIVIDE AND SOUTHERN FOOTHILLS...

CITY           SKY/WX    TMP DP  RH WIND       PRES   REMARKS
COLO. SPRINGS  PTSUNNY   79  27  14 S24       29.91F
A. F. ACADEMY  PTSUNNY   75  28  17 S23G37    29.91F
SCHRIEVER AFB  NOT AVBL
ELLICOTT       FAIR     N/A N/A N/A S26G38    29.91F
FALCON         NOT AVBL
FORT CARSON    FAIR      78  33  18 S18       29.87F
LIMON          FAIR      79  33  19 S20G29    29.90F
MONUMENT HILL  FAIR      70  32  24 S28G38    29.97F
TRINIDAD       FAIR      79  31  17 S28G37    29.90F
$$

COZ042>045-048>051-090-091-070000-
...NORTHEAST COLORADO...

CITY           SKY/WX    TMP DP  RH WIND       PRES   REMARKS
GREELEY ARPT   CLOUDY    66  48  52 N7        29.85R THUNDER
AKRON          FAIR      83  33  16 S22       29.85F
BURLINGTON     FAIR      85  29  13 S25G35    29.88F
WRAY           NOT AVBL
STERLING       FAIR      86  37  17 SE8       29.79F
HOLYOKE        NOT AVBL
FORT MORGAN    FAIR      78  36  22 SE9       29.83S
$$

COZ086-089-092>099-070000-
...SOUTHEAST COLORADO...

CITY           SKY/WX    TMP DP  RH WIND       PRES   REMARKS
PUEBLO         FAIR      86  34  15 S35G46    29.79F
LA JUNTA       FAIR      86  32  14 S31G39    29.83F
LAMAR          FAIR      87  34  15 S29G36    29.83F
SPRINGFIELD      N/A     79  32  18 S28G38    29.92F
$$




USA.gov is the U.S. government's official web portal to all federal, state and local government web resources and services.